GW7336 Weather Reports


time (UTC)temp
C
wind
direction
speed
KPH
gust
KPH
rain 1hr
cm
rain 24hr
cm
rain mn
cm
humidity
%
barometer
mb
20260507040506 9 161 0.0 0.0 0.00 0.61 0.00 100 1007.1
20260507040019 9 173 0.0 0.0 0.00 0.61 0.00 100 1007.1
20260507035506 10 103 0.0 0.0 0.00 0.61 0.61 100 1006.7
20260507035004 10 103 0.0 0.0 0.00 0.61 0.61 100 1006.7
20260507034519 10 103 0.0 0.0 0.00 0.61 0.61 100 1006.6
20260507034007 10 98 0.0 0.0 0.05 0.61 0.61 100 1006.7
20260507033510 10 98 0.0 0.0 0.10 0.61 0.61 100 1006.5
20260507033009 10 98 0.0 0.0 0.10 0.61 0.61 100 1006.5
20260507032507 10 98 0.0 0.0 0.10 0.61 0.61 100 1006.6
20260507032009 10 288 0.0 1.6 0.10 0.61 0.61 100 1006.5
20260507031508 10 288 0.0 1.6 0.10 0.61 0.61 100 1006.5
20260507031007 10 30 0.0 6.4 0.10 0.61 0.61 100 1006.2
20260507030507 10 54 0.0 6.4 0.13 0.61 0.61 100 1006.2
20260507030025 11 257 0.0 3.2 0.13 0.61 0.61 100 1006.4
20260507025504 11 67 0.0 0.0 0.13 0.61 0.61 100 1006.2
20260507025007 11 67 0.0 0.0 0.13 0.61 0.61 100 1006.1
20260507024525 11 9 0.0 1.6 0.13 0.61 0.61 100 1006.5
20260507024003 12 293 0.0 1.6 0.08 0.56 0.56 100 1006.6
20260507023504 12 224 0.0 0.0 0.05 0.51 0.51 100 1006.7
20260507023020 12 224 0.0 0.0 0.05 0.51 0.51 100 1006.6
20260507022508 12 221 0.0 0.0 0.05 0.51 0.51 100 1006.5
20260507022005 12 257 0.0 1.6 0.08 0.51 0.51 100 1006.1
20260507021517 12 257 0.0 1.6 0.10 0.51 0.51 100 1005.9
20260507021010 12 292 0.0 0.0 0.10 0.51 0.51 100 1005.6
20260507020507 12 292 0.0 0.0 0.15 0.48 0.48 100 1005.6
20260507020015 13 292 0.0 0.0 0.18 0.48 0.48 100 1005.6
20260507015508 13 163 0.0 0.0 0.20 0.48 0.48 100 1005.5
20260507015006 13 113 0.0 0.0 0.20 0.48 0.48 100 1005.4
20260507014513 13 113 0.0 0.0 0.20 0.48 0.48 100 1005.5
20260507014009 13 113 0.0 0.0 0.20 0.48 0.48 100 1005.4
20260507013506 13 111 0.0 0.0 0.18 0.46 0.46 100 1005.3
20260507013034 13 13 0.0 6.4 0.18 0.46 0.46 100 1005.3
20260507012506 14 22 0.0 6.4 0.18 0.46 0.46 100 1005.2
20260507012012 14 330 0.0 1.6 0.15 0.43 0.43 100 1005.1
20260507011535 14 65 0.0 4.8 0.13 0.41 0.41 100 1004.9
20260507011004 14 35 0.0 8.0 0.13 0.41 0.41 100 1004.9
20260507010508 14 148 0.0 8.0 0.05 0.33 0.33 100 1004.8
20260507010022 14 109 0.0 1.6 0.03 0.30 0.30 100 1004.9
20260507005515 14 322 0.0 1.6 0.00 0.28 0.28 100 1004.9
20260507005007 14 306 0.0 6.4 0.00 0.28 0.28 100 1004.8
20260507004519 14 137 0.0 6.4 0.00 0.28 0.28 100 1004.7
20260507004007 14 132 0.0 1.6 0.00 0.28 0.28 100 1004.8
20260507003510 14 146 0.0 1.6 0.00 0.28 0.28 100 1004.7
20260507003019 14 143 0.0 1.6 0.00 0.28 0.28 100 1004.6
20260507002510 14 256 0.0 1.6 0.00 0.28 0.28 100 1004.5
20260507002011 14 73 0.0 4.8 0.00 0.28 0.28 100 1004.5
20260507001514 14 115 0.0 12.9 0.00 0.28 0.28 100 1004.6
20260507001009 14 167 0.0 12.9 0.00 0.28 0.28 100 1004.6
20260507000514 14 101 0.0 3.2 0.00 0.28 0.28 100 1004.6
20260507000028 14 150 0.0 1.6 0.00 0.28 0.28 100 1004.5
20260506235508 14 151 0.0 1.6 0.00 0.28 0.28 100 1004.5
20260506235009 14 103 0.0 1.6 0.00 0.28 0.28 100 1004.4
20260506234508 14 156 0.0 1.6 0.00 0.28 0.28 100 1004.4
20260506234002 14 74 0.0 0.0 0.00 0.28 0.28 100 1004.4
20260506233503 14 74 0.0 4.8 0.00 0.28 0.28 100 1004.2
20260506233003 14 60 0.0 4.8 0.00 0.28 0.28 100 1004.2
20260506232502 14 151 0.0 1.6 0.00 0.28 0.28 100 1004.3
20260506232004 14 54 0.0 4.8 0.00 0.28 0.28 100 1004.3
20260506231503 15 55 0.0 4.8 0.00 0.28 0.28 100 1004.4
20260506231002 15 106 0.0 3.2 0.00 0.28 0.28 100 1004.5
20260506230504 15 32 0.0 1.6 0.00 0.28 0.28 100 1004.4
20260506230003 15 68 0.0 0.0 0.00 0.28 0.28 100 1004.5
20260506225502 15 124 0.0 0.0 0.00 0.28 0.28 100 1004.4
20260506225003 15 86 0.0 11.3 0.00 0.28 0.28 100 1004.4
20260506224504 15 285 0.0 11.3 0.00 0.28 0.28 100 1004.5
20260506224002 15 95 0.0 6.4 0.00 0.28 0.28 100 1004.5
20260506223502 15 105 0.0 6.4 0.00 0.28 0.28 100 1004.5
20260506223003 15 159 0.0 1.6 0.00 0.28 0.28 100 1004.5
20260506222502 15 286 0.0 3.2 0.00 0.28 0.28 100 1004.5
20260506222004 15 143 0.0 6.4 0.00 0.28 0.28 100 1004.5
20260506221504 15 139 0.0 14.5 0.00 0.28 0.28 100 1004.5
20260506221003 15 124 0.0 14.5 0.00 0.28 0.28 100 1004.5
20260506220502 15 143 0.0 14.5 0.00 0.28 0.28 100 1004.6
20260506220004 15 114 0.0 11.3 0.00 0.28 0.28 100 1004.7
20260506215504 15 80 0.0 1.6 0.00 0.28 0.28 100 1004.6
20260506215003 15 36 0.0 11.3 0.00 0.28 0.28 100 1004.6
20260506214505 15 42 0.0 11.3 0.00 0.28 0.28 100 1004.6
20260506214004 15 127 0.0 1.6 0.00 0.28 0.28 100 1004.6
20260506213502 15 175 0.0 9.7 0.00 0.28 0.28 100 1004.6
20260506213003 15 129 0.0 9.7 0.03 0.28 0.28 100 1004.7
20260506212505 15 111 0.0 4.8 0.03 0.28 0.28 100 1004.7
20260506212003 15 268 0.0 3.2 0.03 0.28 0.28 100 1004.7
20260506211502 15 130 0.0 6.4 0.03 0.28 0.28 100 1004.7
20260506211003 15 52 0.0 6.4 0.03 0.28 0.28 100 1004.7
20260506210503 15 148 0.0 1.6 0.03 0.28 0.28 100 1004.7
20260506210004 15 24 0.0 1.6 0.05 0.28 0.28 100 1004.7
20260506205503 15 115 0.0 4.8 0.05 0.28 0.28 100 1004.8
20260506205003 15 269 0.0 4.8 0.05 0.28 0.28 100 1004.8
20260506204505 15 118 0.0 0.0 0.08 0.28 0.28 100 1004.9
20260506204003 15 119 0.0 0.0 0.08 0.28 0.28 100 1004.9
20260506203503 15 93 0.0 0.0 0.08 0.28 0.28 100 1005.0
20260506203004 15 89 0.0 1.6 0.08 0.25 0.25 100 1004.9
20260506202503 15 182 0.0 1.6 0.10 0.25 0.25 100 1005.0
20260506202003 15 96 0.0 6.4 0.10 0.25 0.25 100 1005.0
20260506201504 15 96 0.0 6.4 0.10 0.25 0.25 100 1005.1
20260506201004 15 144 0.0 6.4 0.10 0.25 0.25 100 1005.3
20260506200504 15 141 0.0 0.0 0.10 0.25 0.25 100 1005.3
20260506200006 15 122 0.0 0.0 0.08 0.23 0.23 100 1005.4
20260506195502 15 199 0.0 0.0 0.08 0.23 0.23 100 1005.4
20260506195004 15 199 0.0 0.0 0.08 0.23 0.23 100 1005.4
20260506194504 15 203 0.0 1.6 0.05 0.20 0.20 100 1005.4
20260506194003 15 63 0.0 1.6 0.08 0.20 0.20 100 1005.5
20260506193503 15 57 0.0 6.4 0.08 0.20 0.20 100 1005.6
20260506193005 16 115 0.0 6.4 0.05 0.18 0.18 100 1005.6
20260506192503 16 86 0.0 0.0 0.05 0.15 0.15 100 1005.6
20260506192003 16 124 0.0 3.2 0.05 0.15 0.15 100 1005.8
20260506191504 16 98 0.0 3.2 0.05 0.15 0.15 100 1005.7
20260506191003 16 122 0.0 1.6 0.05 0.15 0.15 100 1005.6
20260506190505 16 237 0.0 0.0 0.05 0.15 0.15 100 1005.6
20260506190004 16 93 0.0 0.0 0.05 0.15 0.15 100 1005.5
20260506185501 16 93 0.0 0.0 0.05 0.15 0.15 100 1005.4
20260506185002 16 93 0.0 0.0 0.08 0.15 0.15 100 1005.4
20260506184505 16 93 0.0 0.0 0.10 0.15 0.15 100 1005.6
20260506184003 16 93 0.0 0.0 0.08 0.13 0.13 100 1005.7
20260506183503 16 93 0.0 0.0 0.10 0.13 0.13 100 1006.0
20260506183006 16 74 0.0 0.0 0.13 0.13 0.13 100 1006.2
20260506182503 16 74 0.0 0.0 0.10 0.10 0.10 100 1006.1
20260506182005 16 74 0.0 0.0 0.10 0.10 0.10 100 1006.4
20260506181505 16 74 0.0 0.0 0.10 0.10 0.10 100 1006.6
20260506181003 16 100 0.0 0.0 0.10 0.10 0.10 100 1006.7
20260506180503 16 101 0.0 0.0 0.10 0.10 0.10 100 1006.6
20260506180007 16 114 0.0 0.0 0.10 0.10 0.10 100 1006.5
20260506175503 16 114 0.0 0.0 0.10 0.10 0.10 100 1006.6
20260506175003 16 116 0.0 0.0 0.08 0.08 0.08 100 1006.8
20260506174504 16 117 0.0 0.0 0.05 0.05 0.05 100 1006.9
20260506174003 16 193 0.0 0.0 0.05 0.05 0.05 100 1007.0
20260506173504 16 24 0.0 0.0 0.03 0.03 0.03 3 1007.1
20260506173006 16 110 0.0 0.0 0.00 0.00 0.00 7 1007.0
20260506172502 16 43 0.0 0.0 0.00 0.00 0.00 15 1007.1
20260506172003 16 271 0.0 0.0 0.00 0.00 0.00 22 1007.2
20260506171514 16 164 0.0 0.0 0.00 0.00 0.00 35 1007.0
20260506171002 17 312 0.0 0.0 0.00 0.00 0.00 37 1006.9
20260506170504 17 313 0.0 12.9 0.00 0.00 0.00 47 1006.9
20260506170007 17 99 0.0 12.9 0.00 0.00 0.00 52 1007.0
20260506165507 17 105 0.0 14.5 0.00 0.00 0.00 56 1006.9
20260506165005 17 300 0.0 14.5 0.00 0.00 0.00 59 1006.9
20260506164510 17 82 0.0 11.3 0.00 0.00 0.00 60 1006.8
20260506164003 18 106 0.0 0.0 0.00 0.00 0.00 60 1006.9
20260506163504 18 264 0.0 0.0 0.00 0.00 0.00 61 1007.0
20260506163010 18 155 0.0 0.0 0.00 0.00 0.00 60 1007.0
20260506162504 18 171 0.0 0.0 0.00 0.00 0.00 61 1007.0
20260506162005 18 92 0.0 1.6 0.00 0.00 0.00 61 1007.1
20260506161505 18 86 0.0 1.6 0.00 0.00 0.00 62 1007.2
20260506161002 18 153 0.0 0.0 0.00 0.00 0.00 62 1007.2
20260506160506 18 106 0.0 3.2 0.00 0.00 0.00 62 1007.3
20260506160009 18 197 0.0 3.2 0.00 0.00 0.00 61 1007.3
20260506155504 18 298 0.0 16.1 0.00 0.00 0.00 62 1007.4
20260506155003 18 150 0.0 16.1 0.00 0.00 0.00 62 1007.4
20260506154526 18 71 0.0 0.0 0.00 0.00 0.00 61 1007.6
20260506154003 18 217 0.0 0.0 0.00 0.00 0.00 60 1007.8
20260506153503 18 92 0.0 1.6 0.00 0.00 0.00 59 1007.8
20260506153008 18 110 0.0 4.8 0.00 0.00 0.00 61 1007.8
20260506152504 18 168 0.0 4.8 0.00 0.00 0.00 61 1008.0
20260506152008 18 86 0.0 0.0 0.00 0.00 0.00 60 1008.0
20260506151514 18 66 0.0 0.0 0.00 0.00 0.00 61 1008.0
20260506151002 18 122 0.0 0.0 0.00 0.00 0.00 60 1008.0
20260506150503 18 72 0.0 20.9 0.00 0.00 0.00 61 1008.0
20260506150010 18 135 0.0 22.5 0.00 0.00 0.00 61 1008.2
20260506145505 18 257 0.0 22.5 0.00 0.00 0.00 61 1008.2
20260506145005 18 246 0.0 6.4 0.00 0.00 0.00 61 1008.0
20260506144511 18 133 0.0 12.9 0.00 0.00 0.00 60 1007.8
20260506144004 18 44 0.0 12.9 0.00 0.00 0.00 61 1007.9
20260506143506 18 172 0.0 6.4 0.00 0.00 0.00 62 1008.2
20260506143014 18 107 0.0 6.4 0.00 0.00 0.00 62 1008.2
20260506142504 18 289 0.0 1.6 0.00 0.00 0.00 61 1008.0
20260506142005 18 316 0.0 0.0 0.00 0.00 0.00 60 1008.0
20260506141509 18 294 0.0 8.0 0.00 0.00 0.00 59 1007.8
20260506141005 18 348 0.0 8.0 0.00 0.00 0.00 60 1007.9
20260506140503 18 80 0.0 4.8 0.00 0.00 0.00 58 1007.9
20260506140019 18 150 0.0 9.7 0.00 0.00 0.00 57 1008.0
20260506135503 17 161 0.0 11.3 0.00 0.00 0.00 56 1007.9
20260506135004 17 311 0.0 11.3 0.00 0.00 0.00 53 1007.7
20260506134511 17 97 0.0 1.6 0.00 0.00 0.00 54 1007.7
20260506134005 17 92 0.0 14.5 0.00 0.00 0.00 51 1007.8
20260506133504 17 301 0.0 14.5 0.00 0.00 0.00 51 1007.9
20260506133013 17 169 0.0 0.0 0.00 0.00 0.00 48 1007.9
20260506132510 17 126 0.0 0.0 0.00 0.00 0.00 50 1007.9
20260506132003 16 59 0.0 0.0 0.00 0.00 0.00 49 1007.9
20260506131517 16 132 0.0 0.0 0.00 0.00 0.00 49 1007.9
20260506131005 16 269 0.0 0.0 0.00 0.00 0.00 48 1007.9
20260506130505 16 86 0.0 12.9 0.00 0.00 0.00 48 1008.1
20260506130012 16 254 0.0 12.9 0.00 0.00 0.00 47 1008.2
20260506125503 16 177 3.2 12.9 0.00 0.00 0.00 47 1008.2
20260506125004 16 107 0.0 9.7 0.00 0.00 0.00 46 1008.2
20260506124512 16 92 0.0 0.0 0.00 0.00 0.00 45 1008.2
20260506124006 16 105 0.0 0.0 0.00 0.00 0.00 45 1008.2
20260506123505 16 78 0.0 0.0 0.00 0.00 0.00 45 1008.3
20260506123012 16 86 0.0 0.0 0.00 0.00 0.00 45 1008.2
20260506122506 16 121 0.0 0.0 0.00 0.00 0.00 44 1008.2
20260506122003 16 298 0.0 0.0 0.00 0.00 0.00 45 1008.2
20260506121512 16 250 0.0 0.0 0.00 0.00 0.00 43 1008.3
20260506121003 16 124 0.0 0.0 0.00 0.00 0.00 44 1008.3
20260506120504 16 115 0.0 0.0 0.00 0.00 0.00 45 1008.2
20260506120015 16 84 0.0 0.0 0.00 0.00 0.00 46 1008.5
20260506115504 16 20 0.0 0.0 0.00 0.00 0.00 46 1008.5
20260506115002 16 338 0.0 0.0 0.00 0.00 0.00 45 1008.5